period_start,C,m1,H,J0,J1,J2,J3,J4,J5,JA,JB,JC,JD,JJ,JK,JN,#
2013-09-23 00:00:15,0.03,0.10,0.00,23.74,25.75,28.31,6.05,29.50,1021.50,2057.09,3469.80,3344.12,3624.33,350.38,324.61,23.42,0000 0000 0000 0000 000000
2013-09-23 00:01:15,0.03,0.10,0.00,23.73,25.75,28.33,5.94,29.33,1021.50,2057.11,3469.70,3344.09,3624.40,349.72,324.02,23.42,0000 0000 0000 0000 000000
2013-09-23 00:02:15,0.01,0.10,0.00,23.72,25.75,28.32,6.03,29.54,1021.49,2057.11,3469.65,3344.08,3624.39,350.49,325.21,23.43,0000 0000 0000 0000 000000
2013-09-23 00:03:16,0.03,0.10,0.00,23.71,25.75,28.32,5.95,29.50,1021.50,2057.10,3469.53,3344.07,3624.41,350.02,324.76,23.44,0000 0000 0000 0000 000000
2013-09-23 00:04:16,0.01,0.10,0.00,23.70,25.75,28.31,6.00,29.33,1021.49,2057.11,3469.48,3344.04,3624.46,350.01,324.86,23.44,0000 0000 0000 0000 000000
2013-09-23 00:05:16,0.03,0.10,0.00,23.72,25.75,28.30,6.09,29.46,1021.50,2057.15,3469.42,3344.06,3624.39,350.41,325.26,23.45,0000 0000 0000 0000 000000
2013-09-23 00:06:17,0.03,0.10,0.00,23.72,25.75,28.33,5.92,29.50,1021.50,2057.19,3469.46,3344.11,3624.41,349.71,324.28,23.45,0000 0000 0000 0000 000000
2013-09-23 00:07:17,-0.01,0.10,0.00,23.72,25.75,28.34,5.85,29.38,1021.49,2057.17,3469.39,3344.13,3624.49,349.81,324.47,23.46,0000 0000 0000 0000 000000
2013-09-23 00:08:17,0.00,0.10,0.00,23.72,25.75,28.34,6.05,29.54,1021.48,2057.34,3469.34,3344.18,3624.74,350.80,325.07,23.47,0000 0000 0000 0000 000000
2013-09-23 00:09:17,0.09,0.10,0.00,23.72,25.75,28.30,5.93,29.58,1021.50,2057.45,3469.17,3344.10,3624.78,350.59,325.40,23.47,0000 0000 0000 0000 000000
2013-09-23 00:10:18,0.13,0.10,0.00,23.72,25.75,28.31,5.96,29.38,1021.50,2057.59,3469.06,3344.05,3624.84,349.52,324.68,23.48,0000 0000 0000 0000 000000
2013-09-23 00:11:18,0.13,0.11,0.00,23.73,25.75,28.33,6.01,29.33,1021.50,2057.70,3469.06,3344.09,3624.87,350.63,325.62,23.48,0000 0000 0000 0000 000000
2013-09-23 00:12:18,0.04,0.11,0.00,23.74,25.75,28.34,5.93,29.50,1021.49,2057.75,3469.06,3344.10,3624.84,349.62,324.29,23.49,0000 0000 0000 0000 000000
2013-09-23 00:13:18,0.05,0.11,0.00,23.74,25.75,28.36,6.03,29.58,1021.48,2057.83,3469.06,3344.09,3624.89,350.34,325.02,23.49,0000 0000 0000 0000 000000
2013-09-23 00:14:19,0.04,0.11,0.00,23.73,25.75,28.32,5.75,29.50,1021.47,2057.83,3469.06,3344.19,3624.86,349.62,324.36,23.50,0000 0000 0000 0000 000000
2013-09-23 00:15:19,-0.03,0.11,0.00,23.72,25.75,28.30,6.13,29.42,1021.49,2057.72,3469.11,3344.16,3624.74,350.11,324.83,23.51,0000 0000 0000 0000 000000
2013-09-23 00:16:19,-0.07,0.11,0.00,23.72,25.75,28.30,5.97,29.58,1021.47,2057.80,3469.36,3344.36,3624.85,350.31,325.01,23.51,0000 0000 0000 0000 000000
2013-09-23 00:17:20,-0.01,0.11,0.00,23.72,25.75,28.33,5.83,29.46,1021.42,2057.86,3469.61,3344.41,3624.89,349.27,324.01,23.52,0000 0000 0000 0000 000000
2013-09-23 00:18:20,0.02,0.11,0.00,23.73,25.75,28.33,5.88,29.54,1021.45,2057.75,3469.49,3344.27,3624.82,350.18,324.57,23.52,0000 0000 0000 0000 000000
2013-09-23 00:19:20,-0.06,0.11,0.00,23.72,25.75,28.34,5.98,29.42,1021.45,2057.58,3469.29,3344.14,3624.65,349.89,323.93,23.53,0000 0000 0000 0000 000000
2013-09-23 00:20:20,-0.06,0.10,0.00,23.74,25.75,28.34,5.85,29.58,1021.43,2057.55,3469.19,3344.09,3624.51,349.29,323.87,23.54,0000 0000 0000 0000 000000
2013-09-23 00:21:21,0.03,0.11,0.00,23.73,25.75,28.36,5.96,29.50,1021.43,2057.44,3469.19,3344.06,3624.34,349.56,324.28,23.54,0000 0000 0000 0000 000000
2013-09-23 00:22:21,-0.03,0.10,0.00,23.72,25.75,28.36,5.87,29.58,1021.46,2057.46,3469.18,3344.06,3624.32,348.80,323.83,23.55,0000 0000 0000 0000 000000
2013-09-23 00:23:21,-0.01,0.10,0.00,23.72,25.75,28.34,5.93,29.54,1021.45,2057.48,3469.25,3344.11,3624.46,350.32,324.69,23.55,0000 0000 0000 0000 000000
2013-09-23 00:24:21,0.00,0.10,0.00,23.74,25.75,28.29,6.05,29.54,1021.42,2057.61,3469.27,3344.11,3624.54,350.29,324.96,23.56,0000 0000 0000 0000 000000
2013-09-23 00:25:22,0.05,0.11,0.00,23.77,25.75,28.28,6.05,29.46,1021.39,2057.57,3469.22,3344.08,3624.37,350.31,324.93,23.56,0000 0000 0000 0000 000000
2013-09-23 00:26:22,0.03,0.11,0.00,23.77,25.75,28.28,5.87,29.54,1021.42,2057.55,3469.25,3344.09,3624.29,350.05,324.48,23.57,0000 0000 0000 0000 000000
2013-09-23 00:27:22,0.00,0.11,0.00,23.76,25.75,28.27,5.92,29.58,1021.41,2057.61,3469.25,3344.10,3624.34,349.41,324.22,23.58,0000 0000 0000 0000 000000
2013-09-23 00:28:22,0.02,0.11,0.00,23.76,25.75,28.30,6.02,29.42,1021.33,2057.61,3469.28,3344.15,3624.38,350.56,325.31,23.58,0000 0000 0000 0000 000000
2013-09-23 00:29:23,-0.02,0.11,0.00,23.74,25.75,28.26,5.94,29.50,1021.32,2057.58,3469.31,3344.13,3624.36,350.43,325.05,23.59,0000 0000 0000 0000 000000
2013-09-23 00:30:23,-0.02,0.11,0.00,23.72,25.75,28.32,6.08,29.54,1021.32,2057.58,3469.25,3344.12,3624.34,350.56,325.19,23.59,0000 0000 0000 0000 000000
2013-09-23 00:31:23,0.01,0.11,0.00,23.71,25.75,28.30,5.96,29.50,1021.34,2057.57,3469.18,3344.11,3624.27,350.52,325.18,23.60,0000 0000 0000 0000 000000
2013-09-23 00:32:24,-0.00,0.11,0.00,23.74,25.75,28.31,5.88,29.50,1021.34,2057.47,3469.18,3344.07,3624.18,349.33,324.04,23.61,0000 0000 0000 0000 000000
2013-09-23 00:33:24,-0.04,0.11,0.00,23.74,25.75,28.36,5.86,29.63,1021.26,2057.58,3469.38,3344.21,3624.40,350.19,324.61,23.61,0000 0000 0000 0000 000000
2013-09-23 00:34:24,0.00,0.11,0.00,23.75,25.75,28.32,5.96,29.54,1021.22,2057.68,3469.56,3344.36,3624.65,349.57,324.22,23.62,0000 0000 0000 0000 000000
2013-09-23 00:35:25,-0.01,0.11,0.00,23.80,25.75,28.31,5.96,29.46,1021.23,2057.67,3469.60,3344.35,3624.69,349.73,323.97,23.62,0000 0000 0000 0000 000000
2013-09-23 00:36:25,-0.01,0.11,0.00,23.81,25.75,28.34,5.92,29.50,1021.23,2057.62,3469.46,3344.20,3624.58,349.15,324.07,23.63,0000 0000 0000 0000 000000
2013-09-23 00:37:25,0.02,0.11,0.00,23.84,25.75,28.32,6.13,29.58,1021.19,2057.59,3469.43,3344.17,3624.35,350.85,325.19,23.64,0000 0000 0000 0000 000000
2013-09-23 00:38:25,-0.02,0.11,0.00,23.84,25.75,28.33,6.17,29.46,1021.16,2057.48,3469.36,3344.16,3624.34,351.19,325.59,23.64,0000 0000 0000 0000 000000
2013-09-23 00:39:26,-0.05,0.10,0.00,23.85,25.75,28.35,5.85,29.50,1021.18,2057.44,3469.34,3344.23,3624.42,349.75,324.54,23.65,0000 0000 0000 0000 000000
2013-09-23 00:40:26,0.01,0.10,0.00,23.86,25.75,28.27,5.87,29.38,1021.13,2057.59,3469.34,3344.31,3624.60,349.62,324.12,23.65,0000 0000 0000 0000 000000
2013-09-23 00:41:26,0.03,0.10,0.00,23.89,25.75,28.31,5.92,29.75,1021.11,2057.58,3469.26,3344.32,3624.53,349.39,323.94,23.66,0000 0000 0000 0000 000000
2013-09-23 00:42:27,-0.02,0.10,0.00,23.90,25.75,28.34,5.98,29.71,1021.12,2057.37,3469.11,3344.16,3624.24,349.88,324.50,23.66,0000 0000 0000 0000 000000
2013-09-23 00:43:27,-0.03,0.10,0.00,23.91,25.75,28.31,6.03,29.83,1021.09,2057.32,3469.05,3344.07,3624.13,349.86,323.95,23.67,0000 0000 0000 0000 000000
2013-09-23 00:44:27,0.01,0.10,0.00,23.94,25.75,28.30,5.93,29.63,1021.09,2057.42,3469.06,3344.06,3624.20,349.80,324.42,23.68,0000 0000 0000 0000 000000
2013-09-23 00:45:27,0.08,0.11,0.00,23.92,25.75,28.37,6.06,29.71,1021.07,2057.63,3469.10,3344.12,3624.44,350.85,325.29,23.68,0000 0000 0000 0000 000000
2013-09-23 00:46:28,0.08,0.11,0.00,23.93,25.75,28.29,6.08,29.67,1021.05,2057.75,3469.23,3344.19,3624.60,349.69,324.75,23.69,0000 0000 0000 0000 000000
2013-09-23 00:47:28,0.04,0.11,0.00,23.95,25.75,28.36,6.12,29.46,1021.05,2057.61,3469.14,3344.11,3624.47,351.40,325.54,23.69,0000 0000 0000 0000 000000
2013-09-23 00:48:28,-0.06,0.11,0.00,23.95,25.75,28.31,5.92,29.46,1021.06,2057.41,3469.06,3344.05,3624.24,349.55,323.92,23.70,0000 0000 0000 0000 000000
2013-09-23 00:49:29,-0.09,0.10,0.00,23.98,25.75,28.37,6.01,29.46,1021.02,2057.43,3469.08,3344.04,3624.16,350.12,324.41,23.71,0000 0000 0000 0000 000000
2013-09-23 00:50:29,0.05,0.11,0.00,23.93,25.75,28.32,5.99,29.58,1021.04,2057.49,3469.14,3344.03,3624.12,350.97,325.26,23.71,0000 0000 0000 0000 000000
2013-09-23 00:51:29,0.02,0.11,0.00,23.24,25.75,28.24,5.88,29.63,1021.03,2057.39,3469.24,3344.03,3624.07,349.43,324.55,23.72,0000 0000 0000 0000 000000
2013-09-23 00:52:30,-0.10,0.11,0.00,22.65,25.75,28.26,5.99,30.00,1021.02,2057.22,3469.25,3344.03,3624.04,349.90,325.38,23.72,0000 0000 0000 0000 000000
2013-09-23 00:53:30,-0.12,0.10,0.00,22.28,25.75,28.25,6.07,29.75,1021.01,2057.12,3469.39,3344.05,3624.05,350.20,326.62,23.73,0000 0000 0000 0000 000000
2013-09-23 00:54:30,-0.07,0.10,0.00,22.04,25.75,28.26,5.94,29.88,1021.02,2057.11,3469.25,3344.04,3624.06,349.82,326.09,23.73,0000 0000 0000 0000 000000
2013-09-23 00:55:30,-0.00,0.10,0.00,21.88,25.75,28.37,6.09,29.71,1021.03,2057.13,3469.12,3344.02,3624.04,351.02,327.50,23.74,0000 0000 0000 0000 000000
2013-09-23 00:56:31,0.03,0.10,0.00,21.95,25.75,28.52,6.05,29.71,1021.03,2057.17,3469.08,3344.03,3624.02,349.93,326.48,23.75,0000 0000 0000 0000 000000
2013-09-23 00:57:31,0.05,0.10,0.00,22.50,25.75,28.58,6.14,29.79,1021.01,2057.16,3469.08,3344.02,3624.02,350.44,326.56,23.75,0000 0000 0000 0000 000000
2013-09-23 00:58:31,-0.01,0.10,0.00,22.82,25.75,28.60,6.18,29.58,1021.01,2057.13,3469.04,3344.01,3624.01,350.13,325.69,23.76,0000 0000 0000 0000 000000
2013-09-23 00:59:32,-0.02,0.10,0.00,22.99,25.75,28.61,5.96,29.54,1021.01,2057.21,3469.02,3344.01,3624.04,349.69,325.09,23.76,0000 0000 0000 0000 000000
2013-09-23 01:00:32,0.09,0.10,0.00,23.12,25.75,28.64,5.99,29.58,1021.01,2057.39,3469.03,3344.01,3624.06,350.00,325.25,23.77,0000 0000 0000 0000 000000
2013-09-23 01:01:32,0.09,0.11,0.00,23.19,25.75,28.67,6.06,29.50,1021.01,2057.32,3469.02,3344.02,3624.03,350.47,325.59,23.78,0000 0000 0000 0000 000000
2013-09-23 01:02:32,-0.06,0.11,0.00,23.25,25.75,28.65,5.87,29.54,1021.01,2057.20,3469.03,3344.03,3624.01,349.57,324.69,23.78,0000 0000 0000 0000 000000
2013-09-23 01:03:33,-0.05,0.10,0.00,23.32,25.75,28.61,6.00,29.46,1021.01,2057.27,3469.03,3344.03,3624.02,350.04,325.08,23.79,0000 0000 0000 0000 000000
2013-09-23 01:04:33,0.01,0.10,0.00,23.36,25.75,28.58,6.07,29.42,1021.01,2057.26,3469.05,3344.03,3624.05,350.19,325.00,23.79,0000 0000 0000 0000 000000
2013-09-23 01:05:33,-0.01,0.10,0.00,23.40,25.75,28.59,6.08,29.54,1021.01,2057.22,3469.07,3344.04,3624.03,350.00,324.93,23.80,0000 0000 0000 0000 000000
2013-09-23 01:06:33,-0.01,0.10,0.00,23.44,25.74,28.56,5.94,29.63,1021.01,2057.20,3469.03,3344.04,3624.01,349.79,324.69,23.81,0000 0000 0000 0000 000000
2013-09-23 01:07:34,-0.02,0.10,0.00,23.48,25.73,28.50,5.99,29.63,1021.00,2057.21,3469.02,3344.04,3624.01,350.57,325.37,23.81,0000 0000 0000 0000 000000
2013-09-23 01:08:34,0.05,0.10,0.00,23.53,25.73,28.46,5.92,29.50,1020.98,2057.37,3469.02,3344.02,3624.09,349.34,324.18,23.82,0000 0000 0000 0000 000000
2013-09-23 01:09:34,0.09,0.11,0.00,23.57,25.72,28.45,6.04,29.71,1021.01,2057.48,3469.02,3344.06,3624.11,350.37,325.08,23.82,0000 0000 0000 0000 000000
2013-09-23 01:10:35,0.09,0.11,0.00,23.61,25.72,28.44,6.00,29.58,1021.01,2057.49,3469.04,3344.06,3624.07,350.31,324.99,23.83,0000 0000 0000 0000 000000
2013-09-23 01:11:35,-0.03,0.11,0.00,23.65,25.72,28.44,6.05,29.50,1021.01,2057.54,3469.16,3344.12,3624.05,349.86,324.53,23.83,0000 0000 0000 0000 000000
2013-09-23 01:12:35,0.00,0.11,0.00,23.68,25.72,28.41,5.87,29.42,1021.01,2057.61,3469.25,3344.18,3624.11,349.06,323.82,23.84,0000 0000 0000 0000 000000
2013-09-23 01:13:35,0.02,0.11,0.00,23.72,25.72,28.36,5.83,29.46,1021.00,2057.61,3469.34,3344.21,3624.14,349.47,324.08,23.85,0000 0000 0000 0000 000000
2013-09-23 01:14:36,-0.03,0.11,0.00,23.76,25.72,28.36,5.70,29.46,1021.00,2057.62,3469.38,3344.35,3624.32,349.03,323.63,23.85,0000 0000 0000 0000 000000
2013-09-23 01:15:36,-0.04,0.10,0.00,23.81,25.72,28.36,5.92,29.46,1021.00,2057.65,3469.49,3344.57,3624.45,349.42,323.81,23.86,0000 0000 0000 0000 000000
2013-09-23 01:16:36,-0.02,0.10,0.00,23.84,25.72,28.29,5.91,29.54,1021.01,2057.72,3469.61,3344.64,3624.51,350.47,324.88,23.86,0000 0000 0000 0000 000000
2013-09-23 01:17:36,0.02,0.11,0.00,23.88,25.72,28.25,5.97,29.58,1021.01,2057.66,3469.53,3344.49,3624.36,350.32,324.27,23.87,0000 0000 0000 0000 000000
2013-09-23 01:18:37,0.01,0.11,0.00,23.91,25.71,28.27,5.83,29.54,1021.00,2057.62,3469.61,3344.47,3624.28,349.85,324.34,23.88,0000 0000 0000 0000 000000
2013-09-23 01:19:37,-0.02,0.10,0.00,23.95,25.71,28.28,5.70,29.42,1021.01,2057.71,3469.67,3344.53,3624.30,348.98,323.48,23.88,0000 0000 0000 0000 000000
2013-09-23 01:20:37,0.01,0.11,0.00,23.98,25.71,28.27,5.72,29.54,1021.01,2057.72,3469.62,3344.47,3624.29,349.51,323.83,23.89,0000 0000 0000 0000 000000
2013-09-23 01:21:38,0.01,0.11,0.00,24.02,25.70,28.29,6.03,29.54,1021.01,2057.64,3469.73,3344.53,3624.32,350.66,324.90,23.89,0000 0000 0000 0000 000000
2013-09-23 01:22:38,-0.09,0.10,0.00,24.07,25.70,28.29,6.03,29.71,1021.01,2057.42,3469.51,3344.37,3624.20,349.55,323.58,23.90,0000 0000 0000 0000 000000
2013-09-23 01:23:38,-0.03,0.10,0.00,24.09,25.70,28.25,5.92,29.63,1021.01,2057.39,3469.46,3344.24,3624.12,350.35,324.50,23.90,0000 0000 0000 0000 000000
2013-09-23 01:24:38,-0.01,0.10,0.00,24.12,25.70,28.22,6.10,29.71,1021.01,2057.35,3469.58,3344.19,3624.09,351.11,325.16,23.91,0000 0000 0000 0000 000000
2013-09-23 01:25:39,-0.06,0.10,0.00,24.15,25.71,28.21,6.00,29.54,1021.00,2057.32,3469.60,3344.18,3624.08,350.27,324.36,23.92,0000 0000 0000 0000 000000
2013-09-23 01:26:39,-0.01,0.10,0.00,24.18,25.71,28.24,6.11,29.75,1020.98,2057.32,3469.65,3344.14,3624.07,351.64,324.90,23.92,0000 0000 0000 0000 000000
2013-09-23 01:27:39,0.00,0.10,0.00,24.22,25.71,28.27,6.16,29.71,1020.98,2057.36,3469.71,3344.22,3624.09,350.64,324.61,23.93,0000 0000 0000 0000 000000
2013-09-23 01:28:40,0.03,0.10,0.00,24.25,25.71,28.23,5.86,29.54,1020.97,2057.43,3469.60,3344.27,3624.13,349.94,323.94,23.93,0000 0000 0000 0000 000000
2013-09-23 01:29:40,0.04,0.10,0.00,24.29,25.72,28.25,6.13,29.88,1020.98,2057.56,3469.75,3344.41,3624.17,350.30,324.23,23.94,0000 0000 0000 0000 000000
2013-09-23 01:30:40,0.03,0.10,0.00,24.32,25.72,28.25,5.73,29.58,1020.99,2057.52,3469.81,3344.46,3624.12,348.48,322.51,23.95,0000 0000 0000 0000 000000
2013-09-23 01:31:40,-0.03,0.10,0.00,24.35,25.72,28.29,5.70,29.54,1020.91,2057.42,3469.60,3344.36,3624.06,348.43,322.47,23.95,0000 0000 0000 0000 000000
2013-09-23 01:32:41,0.00,0.10,0.00,24.38,25.72,28.34,5.83,29.67,1020.87,2057.35,3469.55,3344.24,3624.06,349.29,323.25,23.96,0000 0000 0000 0000 000000
2013-09-23 01:33:41,-0.04,0.10,0.00,24.42,25.72,28.33,5.80,29.46,1020.89,2057.32,3469.66,3344.21,3624.03,349.78,323.93,23.96,0000 0000 0000 0000 000000
2013-09-23 01:34:41,-0.02,0.10,0.00,24.45,25.72,28.32,5.73,29.58,1020.86,2057.28,3469.63,3344.17,3624.02,348.40,322.26,23.97,0000 0000 0000 0000 000000
2013-09-23 01:35:42,-0.01,0.10,0.00,24.47,25.72,28.33,5.94,29.54,1020.84,2057.23,3469.37,3344.11,3624.00,350.40,324.08,23.98,0000 0000 0000 0000 000000
2013-09-23 01:36:42,0.01,0.10,0.00,24.49,25.72,28.33,5.90,29.63,1020.79,2057.20,3469.25,3344.06,3624.00,349.60,323.30,23.98,0000 0000 0000 0000 000000
2013-09-23 01:37:42,-0.00,0.10,0.00,24.52,25.72,28.32,6.01,29.63,1020.82,2057.13,3469.15,3344.07,3624.00,350.12,323.47,23.99,0000 0000 0000 0000 000000
2013-09-23 01:38:42,-0.02,0.10,0.00,24.56,25.73,28.34,5.95,29.67,1020.78,2057.09,3469.11,3344.04,3624.00,350.41,323.97,23.99,0000 0000 0000 0000 000000
2013-09-23 01:39:42,-0.02,0.10,0.00,24.59,25.74,28.37,6.06,29.75,1020.77,2057.06,3469.09,3344.03,3624.01,350.48,323.99,24.00,0000 0000 0000 0000 000000
2013-09-23 01:40:43,-0.02,0.10,0.00,24.62,25.75,28.38,6.00,29.67,1020.80,2057.05,3469.19,3344.04,3624.03,349.73,322.96,24.00,0000 0000 0000 0000 000000
2013-09-23 01:41:43,-0.01,0.10,0.00,24.65,25.75,28.40,5.96,29.63,1020.77,2057.06,3469.20,3344.02,3624.01,349.18,322.37,24.01,0000 0000 0000 0000 000000
2013-09-23 01:42:43,0.00,0.10,0.00,24.70,25.75,28.42,5.79,29.63,1020.72,2057.03,3469.09,3344.01,3624.00,349.38,322.42,24.02,0000 0000 0000 0000 000000
2013-09-23 01:43:44,-0.01,0.10,0.00,24.71,25.75,28.44,5.90,29.63,1020.68,2057.05,3469.05,3344.00,3624.00,349.73,323.15,24.02,0000 0000 0000 0000 000000
2013-09-23 01:44:44,0.02,0.10,0.00,24.73,25.77,28.44,5.92,29.79,1020.68,2057.04,3469.04,3344.00,3624.00,350.35,323.27,24.03,0000 0000 0000 0000 000000
2013-09-23 01:45:44,0.00,0.10,0.00,24.77,25.77,28.46,5.99,29.67,1020.63,2057.05,3469.09,3344.00,3624.00,350.26,323.56,24.03,0000 0000 0000 0000 000000
2013-09-23 01:46:45,0.00,0.10,0.00,24.80,25.77,28.46,6.13,29.67,1020.61,2057.03,3469.08,3344.00,3624.00,351.22,324.40,24.04,0000 0000 0000 0000 000000
2013-09-23 01:47:45,0.00,0.10,0.00,24.83,25.78,28.49,5.70,29.50,1020.61,2057.01,3469.05,3344.00,3623.98,348.90,322.04,24.05,0000 0000 0000 0000 000000
2013-09-23 01:48:45,-0.01,0.10,0.00,24.86,25.79,28.51,5.73,29.33,1020.59,2057.00,3469.04,3344.00,3623.99,349.26,322.81,24.05,0000 0000 0000 0000 000000
2013-09-23 01:49:45,-0.00,0.10,0.00,24.88,25.80,28.56,6.07,29.42,1020.61,2057.00,3469.02,3344.00,3623.98,350.66,323.80,24.06,0000 0000 0000 0000 000000
2013-09-23 01:50:45,0.00,0.10,0.00,24.90,25.80,28.55,5.79,29.50,1020.66,2057.00,3469.01,3344.00,3623.97,349.69,322.83,24.06,0000 0000 0000 0000 000000
2013-09-23 01:51:46,0.00,0.10,0.00,24.93,25.80,28.55,5.72,29.54,1020.77,2057.00,3469.02,3343.99,3623.87,348.70,322.42,24.07,0000 0000 0000 0000 000000
2013-09-23 01:52:46,0.01,0.10,0.00,24.97,25.82,28.58,5.85,29.54,1020.75,2057.00,3469.02,3343.97,3623.59,349.05,322.32,24.07,0000 0000 0000 0000 000000
2013-09-23 01:53:46,0.04,0.10,0.00,25.00,25.82,28.59,5.82,29.54,1020.72,2057.00,3469.00,3343.97,3623.46,349.70,322.46,24.08,0000 0000 0000 0000 000000
2013-09-23 01:54:47,0.01,0.10,0.00,25.03,25.82,28.62,5.75,29.42,1020.72,2057.00,3469.00,3343.94,3623.29,348.17,321.37,24.09,0000 0000 0000 0000 000000
2013-09-23 01:55:47,0.02,0.10,0.00,25.06,25.84,28.62,5.99,29.50,1020.76,2057.00,3469.00,3343.93,3623.18,350.44,323.45,24.09,0000 0000 0000 0000 000000
2013-09-23 01:56:47,0.01,0.10,0.00,25.09,25.85,28.64,5.91,29.54,1020.83,2057.00,3469.00,3343.88,3623.08,349.94,322.42,24.10,0000 0000 0000 0000 000000
2013-09-23 01:57:47,0.02,0.10,0.00,25.09,25.85,28.66,5.88,29.50,1020.86,2057.00,3469.00,3343.75,3623.04,350.13,322.35,24.10,0000 0000 0000 0000 000000
2013-09-23 01:58:48,0.02,0.10,0.00,25.12,25.87,28.67,6.05,29.58,1020.87,2056.98,3468.98,3343.51,3623.04,349.86,322.98,24.11,0000 0000 0000 0000 000000
2013-09-23 01:59:48,0.05,0.10,0.00,25.15,25.87,28.68,5.64,29.46,1020.85,2056.99,3468.99,3343.32,3623.03,349.30,321.95,24.12,0000 0000 0000 0000 000000
2013-09-23 02:00:48,0.02,0.10,0.00,25.17,25.88,28.70,5.91,29.50,1020.84,2056.99,3468.98,3343.21,3623.01,349.35,322.31,24.12,0000 0000 0000 0000 000000
2013-09-23 02:01:48,0.04,0.11,0.00,25.20,25.89,28.72,6.03,29.50,1020.86,2056.98,3468.98,3343.11,3623.00,350.20,323.11,24.13,0000 0000 0000 0000 000000
2013-09-23 02:02:49,0.01,0.11,0.00,25.22,25.90,28.74,5.76,29.50,1020.84,2056.99,3468.98,3343.06,3623.00,349.36,322.30,24.13,0000 0000 0000 0000 000000
2013-09-23 02:03:49,0.00,0.11,0.00,25.24,25.91,28.75,6.04,29.79,1020.83,2056.97,3468.99,3343.03,3623.00,350.87,323.67,24.14,0000 0000 0000 0000 000000
2013-09-23 02:04:49,0.00,0.11,0.00,25.27,25.92,28.77,5.92,29.54,1020.87,2056.97,3468.94,3343.01,3623.00,349.52,322.75,24.15,0000 0000 0000 0000 000000
2013-09-23 02:05:49,0.01,0.11,0.00,25.29,25.93,28.78,5.81,29.42,1020.86,2056.94,3468.84,3343.00,3623.00,349.65,322.50,24.15,0000 0000 0000 0000 000000
2013-09-23 02:06:50,-0.02,0.10,0.00,25.32,25.94,28.82,6.05,29.54,1020.86,2056.88,3468.63,3343.00,3622.96,350.06,322.91,24.16,0000 0000 0000 0000 000000
2013-09-23 02:07:50,0.00,0.11,0.00,25.36,25.95,28.83,5.73,29.33,1020.85,2056.78,3468.57,3343.00,3622.93,349.73,322.62,24.16,0000 0000 0000 0000 000000
2013-09-23 02:08:50,-0.09,0.10,0.00,25.37,25.96,28.83,5.77,29.50,1020.94,2056.61,3468.51,3343.00,3622.88,350.25,322.86,24.17,0000 0000 0000 0000 000000
2013-09-23 02:09:50,-0.11,0.10,0.00,25.39,25.97,28.88,5.82,29.46,1020.93,2056.42,3468.37,3342.99,3622.63,349.84,322.59,24.17,0000 0000 0000 0000 000000
2013-09-23 02:10:51,-0.09,0.10,0.00,25.41,25.98,28.88,6.02,29.33,1020.90,2056.24,3468.16,3342.98,3622.28,350.89,323.68,24.18,0000 0000 0000 0000 000000
2013-09-23 02:11:51,-0.05,0.10,0.00,25.45,26.00,28.91,5.77,29.50,1020.94,2056.11,3468.08,3342.97,3622.13,349.18,322.15,24.19,0000 0000 0000 0000 000000
2013-09-23 02:12:51,-0.07,0.10,0.00,25.47,26.00,28.92,5.66,29.63,1020.96,2056.04,3468.03,3342.87,3622.05,350.13,322.78,24.19,0000 0000 0000 0000 000000
2013-09-23 02:13:51,-0.01,0.10,0.00,25.51,26.02,28.95,6.13,29.50,1020.95,2056.01,3468.01,3342.60,3622.02,351.31,324.05,24.20,0000 0000 0000 0000 000000
2013-09-23 02:14:52,0.04,0.10,0.00,25.53,26.03,28.95,6.07,29.46,1020.97,2056.00,3468.01,3342.36,3622.00,349.97,322.56,24.20,0000 0000 0000 0000 000000
2013-09-23 02:15:52,0.03,0.10,0.00,25.55,26.04,28.96,5.95,29.46,1020.96,2056.01,3468.00,3342.26,3622.00,350.40,322.95,24.21,0000 0000 0000 0000 000000
2013-09-23 02:16:52,0.03,0.10,0.00,25.56,26.05,28.99,5.83,29.54,1020.98,2056.01,3468.00,3342.14,3622.00,350.68,323.28,24.22,0000 0000 0000 0000 000000
2013-09-23 02:17:52,0.01,0.10,0.00,25.60,26.07,29.02,6.03,29.67,1020.98,2056.00,3467.99,3342.08,3621.98,351.09,323.54,24.22,0000 0000 0000 0000 000000
2013-09-23 02:18:52,0.01,0.10,0.00,25.62,26.07,29.02,6.05,29.63,1020.98,2056.00,3467.98,3342.04,3621.98,350.22,322.43,24.23,0000 0000 0000 0000 000000
2013-09-23 02:19:53,0.00,0.10,0.00,25.65,26.09,29.04,5.77,29.58,1020.98,2056.00,3467.98,3342.01,3621.98,350.05,322.31,24.23,0000 0000 0000 0000 000000
2013-09-23 02:20:53,0.00,0.10,0.00,25.67,26.11,29.07,6.00,29.54,1020.98,2056.00,3467.98,3342.00,3621.92,351.28,323.63,24.24,0000 0000 0000 0000 000000
2013-09-23 02:21:53,0.01,0.10,0.00,25.69,26.12,29.10,5.70,29.46,1020.97,2055.99,3467.98,3342.00,3621.72,349.80,322.25,24.25,0000 0000 0000 0000 000000
2013-09-23 02:22:54,0.01,0.10,0.00,25.72,26.13,29.13,5.67,29.46,1020.96,2055.97,3467.97,3342.00,3621.45,349.07,321.54,24.25,0000 0000 0000 0000 000000
2013-09-23 02:23:54,0.01,0.10,0.00,25.73,26.15,29.14,6.01,29.58,1020.97,2055.97,3467.97,3342.00,3621.24,349.94,322.00,24.26,0000 0000 0000 0000 000000
2013-09-23 02:24:54,0.03,0.10,0.00,25.75,26.16,29.12,5.80,29.54,1020.97,2055.99,3467.90,3342.00,3621.11,348.97,321.42,24.26,0000 0000 0000 0000 000000
2013-09-23 02:25:55,0.03,0.10,0.00,25.75,26.17,29.14,5.74,29.46,1020.97,2055.97,3467.65,3341.99,3621.05,349.44,321.83,24.27,0000 0000 0000 0000 000000
2013-09-23 02:26:55,0.02,0.10,0.00,25.77,26.19,29.17,5.68,29.54,1020.97,2055.94,3467.33,3341.91,3621.03,349.39,322.71,24.27,0000 0000 0000 0000 000000
2013-09-23 02:27:55,0.03,0.10,0.00,25.82,26.20,29.19,5.85,29.50,1020.98,2055.83,3467.15,3341.72,3621.00,350.73,322.95,24.28,0000 0000 0000 0000 000000
2013-09-23 02:28:55,-0.01,0.10,0.00,25.83,26.21,29.16,5.83,29.58,1020.97,2055.72,3467.05,3341.38,3620.99,349.81,322.09,24.29,0000 0000 0000 0000 000000
2013-09-23 02:29:56,0.00,0.10,0.00,25.86,26.22,29.17,5.93,29.38,1020.94,2055.50,3467.02,3341.19,3620.97,350.06,322.29,24.29,0000 0000 0000 0000 000000
2013-09-23 02:30:56,-0.13,0.10,0.00,25.90,26.24,29.23,5.93,29.42,1020.94,2055.24,3467.00,3341.08,3620.92,350.44,322.33,24.30,0000 0000 0000 0000 000000
2013-09-23 02:31:56,-0.16,0.10,0.00,25.90,26.25,29.24,5.88,29.46,1020.94,2055.13,3467.00,3341.03,3620.56,349.85,322.25,24.30,0000 0000 0000 0000 000000
2013-09-23 02:32:56,0.00,0.10,0.00,25.91,26.27,29.25,6.10,29.54,1020.92,2055.06,3466.97,3341.01,3620.23,351.24,322.55,24.31,0000 0000 0000 0000 000000
2013-09-23 02:33:57,-0.01,0.10,0.00,25.92,26.28,29.27,5.77,29.42,1020.97,2055.02,3466.90,3340.99,3620.09,349.63,321.85,24.32,0000 0000 0000 0000 000000
2013-09-23 02:34:57,0.00,0.10,0.00,25.94,26.30,29.31,5.96,29.54,1020.95,2055.03,3466.85,3340.97,3620.03,350.05,322.17,24.32,0000 0000 0000 0000 000000
2013-09-23 02:35:57,0.01,0.10,0.00,25.97,26.32,29.32,5.89,29.63,1020.96,2055.01,3466.58,3340.96,3620.01,350.35,322.42,24.33,0000 0000 0000 0000 000000